ICEYE-X43

导读 | 星芒AI

ICEYE-X43 是 ICEYE 公司发射的一颗合成孔径雷达(SAR)卫星,具备高分辨率和全天候成像能力。该卫星支持亚米级分辨率,可在任何天气和光照条件下提供地球表面的清晰图像。作为 ICEYE 卫星星座的一部分,ICEYE-X43 用于环境监测、灾害响应、农业管理和安全监控等领域。其小型化设计和先进雷达技术提升了任务灵活性和数据获取频率,为用户提供快速、可靠的地球观测服务。

基本信息
目录编号:
60539
目录名称:
ICEYE-X43
国际标识:
2024-149BZ
轨道中心:
EARTH
卫星名称:
ICEYE-X43
卫星全名:
ICEYE-X43
卫星状态:
在轨 (已飞行486 天)
发射日期:
2024-08-16 UTC
国别 :
(FI)
星等 :
--
轨道信息
数据来源 国际轨道数据 AOE轨道数据
星历时间 2025-12-15T00:44:31+0800
1天前
查看轨道信息
2025-12-10T12:00:00+0800
5天前
查看轨道信息
半长轴 6949.391km 6949.59km
偏心率 0.000229 0.0002245
轨道倾角 97.699° 97.697°
近地点辐角 3.993° 17.987°
升交点赤经 63.126° 58.654°
平近点角 356.132° 33.835°
近地点 569.664km 569.894km
远地点 572.848km 573.016km
周期 96.090分钟 96.094分钟
每日圈数 14.985894 14.985252
详细信息
使用方式:
暂无
2D轨道图
3D轨道图
轨道高度分析图
轨道倾角分析图
轨道综合分析图
查看轨道综合分析图